Wind_Speed
52 54 53 54 57 58 62 65 71 71 74 77 83 88 89 87 88 93 98 97 98 99 97 84 62 51 44 32 20 20 40 54 70 75 79 81 82 87 90 91 92 93 91 94 96 97 98
51 55 52 55 55 57 60 63 70 71 73 75 80 86 88 89 88 89 98 97 98 99 97 90 64 52 47 35 21 15 32 52 68 74 76 78 79 82 87 89 94 91 90 93 94 95 96
52 54 54 54 56 57 59 61 68 70 72 76 78 84 87 89 90 88 95 97 99 98 97 90 67 54 48 36 23 12 22 43 63 73 74 76 77 78 81 87 89 90 91 92 92 94 95
54 55 56 55 56 56 58 60 64 68 71 74 77 83 85 87 88 88 93 99 96 96 97 92 72 57 50 39 28 9 19 38 56 67 72 73 75 76 79 81 84 90 89 91 90 92 91
55 56 56 55 55 57 56 57 62 66 69 72 76 81 83 85 86 85 90 99 98 96 94 90 80 59 52 43 32 12 11 27 47 60 67 69 70 71 74 76 80 84 85 87 86 89 89
58 56 56 57 57 56 55 55 59 64 68 70 73 79 80 82 84 85 86 95 99 97 96 90 84 60 53 45 35 16 2 17 32 50 60 65 65 69 71 71 74 75 81 85 85 87 86
61 57 56 58 57 56 53 54 56 62 66 69 69 75 77 79 81 80 83 92 97 97 94 87 81 68 51 48 37 22 5 10 23 39 53 58 62 64 68 69 67 68 75 82 84 85 85
62 58 58 57 57 56 52 52 53 59 63 67 67 71 73 76 79 79 80 88 93 92 93 89 78 70 55 46 41 27 7 10 20 30 41 48 55 60 63 64 66 68 73 79 85 87 86
63 61 59 56 57 56 52 52 52 56 60 64 66 68 70 73 75 77 78 85 91 91 88 87 75 70 60 48 44 35 19 7 15 25 32 42 50 53 55 57 60 65 69 77 83 84 82
63 62 60 57 56 55 52 51 51 55 57 61 64 65 66 70 71 73 75 81 86 90 91 88 82 73 62 56 47 40 32 13 3 16 28 37 43 51 55 55 59 63 68 72 75 80 82
62 64 59 57 55 54 50 49 50 51 56 57 61 62 63 65 68 72 72 77 83 88 91 89 81 76 68 58 56 47 35 24 5 12 21 28 37 45 52 58 59 61 65 68 71 75 78
60 59 59 56 55 54 51 48 48 49 53 55 58 59 60 62 66 70 68 73 80 83 86 84 84 80 74 63 57 54 48 27 16 10 20 27 32 40 48 51 55 58 60 65 69 71 75
58 55 55 54 52 53 49 47 46 47 51 52 55 56 57 60 63 67 67 71 78 80 81 84 79 78 78 75 65 55 51 43 24 15 16 24 33 36 40 46 51 53 57 61 63 66 68
51 51 52 53 50 52 49 47 46 46 48 50 51 54 55 57 59 64 66 69 74 77 79 82 80 72 76 76 73 60 55 47 41 22 16 20 28 35 39 44 50 56 58 60 61 62 66
46 47 50 51 51 51 49 46 45 45 46 48 49 52 53 55 57 61 63 64 72 75 76 82 81 74 74 78 76 75 67 53 45 33 20 19 23 31 39 45 49 53 53 55 59 62 66
42 45 47 50 48 50 47 46 44 44 44 46 48 51 52 53 55 59 60 63 68 72 74 80 84 79 76 80 80 81 73 61 48 43 29 22 23 28 36 41 47 49 54 55 58 61 63
40 45 46 47 46 48 46 46 43 43 43 44 46 49 50 51 54 58 60 61 65 70 72 78 80 84 80 87 85 82 80 69 57 47 34 24 26 28 33 41 49 52 54 55 59 60 62
39 43 45 45 47 46 45 45 42 43 42 43 45 47 49 49 52 55 58 60 64 70 70 73 77 81 79 84 92 88 84 75 65 51 36 19 27 32 34 37 43 49 54 56 58 59 61
41 40 44 46 46 43 43 44 43 43 43 42 44 46 48 48 49 54 55 59 64 66 69 73 76 79 84 78 85 90 86 79 66 49 37 20 23 33 34 36 41 46 54 58 61 60 60
40 40 42 47 50 47 44 44 43 44 45 43 43 44 47 46 48 53 54 57 63 65 70 73 73 77 85 84 83 90 87 79 64 48 35 21 21 32 37 37 41 43 49 54 57 59 63
37 37 40 39 42 44 43 45 45 46 47 44 43 43 45 46 50 51 54 56 61 62 69 71 71 78 82 84 84 88 84 76 65 47 32 20 20 28 36 38 38 42 44 45 53 60 58
35 37 37 39 41 42 45 46 42 47 46 43 41 43 44 46 48 49 52 56 60 63 68 72 73 79 81 86 86 85 80 73 63 46 31 21 19 24 34 39 39 39 40 42 48 60 62
39 36 37 38 41 43 44 41 41 44 46 44 41 42 43 44 46 47 52 56 60 63 68 71 75 78 85 88 97 80 79 69 62 46 33 23 20 20 30 37 37 38 44 43 43 47 53
39 38 42 46 44 44 43 40 40 43 45 46 40 40 41 42 45 46 52 56 61 62 68 72 76 81 87 93 97 90 76 66 56 43 33 25 21 18 26 34 36 44 35 36 39 45 44
41 38 36 39 42 41 39 40 41 41 43 45 41 42 41 40 45 46 51 58 61 64 69 70 79 82 86 94 98 97 79 65 57 44 30 24 17 18 22 30 39 39 32 33 38 38 40
40 36 37 38 38 36 37 38 39 40 41 43 41 40 41 41 43 47 52 58 60 67 72 73 76 83 88 92 99 103 79 73 63 49 34 26 17 14 20 27 35 36 31 31 32 32 37
40 36 37 37 37 36 37 38 36 38 39 42 43 42 41 41 42 48 52 57 60 68 71 77 80 85 86 94 99 107 93 77 65 54 35 27 19 15 19 26 31 33 27 25 27 27 31
40 36 38 41 40 38 38 37 36 35 36 41 43 44 42 39 44 49 55 57 62 66 72 76 81 85 88 96 100 104 99 83 65 58 38 28 23 17 18 23 31 26 22 23 27 30 29
41 35 36 40 43 43 41 38 35 35 36 40 45 46 42 42 46 50 54 59 63 69 75 77 84 87 92 96 101 102 99 84 68 57 40 27 24 20 19 25 29 24 22 26 27 27 27
Wind_Direction
311 316 320 317 318 320 325 328 330 334 337 338 337 339 340 346 348 350 352 0 2 357 355 354 351 349 349 337 312 246 219 209 207 208 210 209 208 208 210 211 213 214 211 214 215 216 218
308 311 316 318 315 318 322 327 329 332 335 337 337 339 339 346 348 351 352 360 2 358 354 356 355 354 355 346 333 264 221 206 202 205 206 208 207 208 209 209 212 212 211 213 216 216 218
303 305 311 313 313 315 319 325 328 331 334 336 337 338 339 345 347 353 352 357 5 359 356 358 358 358 3 356 352 303 221 208 203 202 203 204 206 207 208 209 211 211 211 212 215 217 218
299 301 305 309 310 312 316 321 326 330 333 334 337 336 340 344 346 350 352 355 6 2 1 0 3 2 8 7 6 334 214 205 200 201 202 202 203 205 208 210 210 212 211 211 215 216 218
295 297 302 304 307 309 313 318 322 327 331 333 336 337 339 343 345 350 353 355 3 4 3 1 5 3 10 12 11 353 224 202 205 200 201 201 203 205 208 210 211 213 211 212 215 218 218
293 294 297 299 303 304 310 315 321 324 327 330 335 337 339 342 345 350 353 355 1 6 4 6 6 8 13 18 15 14 355 199 204 203 202 200 201 204 208 209 213 213 212 212 214 218 218
288 290 293 295 297 300 306 312 320 323 325 330 333 336 337 341 344 350 352 356 360 5 6 9 6 7 15 23 25 18 60 188 193 203 202 201 202 205 208 209 212 214 214 214 215 218 219
282 285 287 290 293 296 301 309 316 319 323 328 331 335 337 340 344 349 352 357 357 359 5 5 8 11 17 25 31 24 16 174 182 197 203 202 204 208 209 211 211 212 213 215 215 217 219
278 279 282 285 287 292 297 305 313 317 321 325 329 334 336 339 343 348 352 356 356 358 2 4 12 17 20 25 30 33 30 33 182 190 196 199 205 208 212 214 213 214 215 217 217 217 221
272 274 276 280 282 288 294 301 308 314 319 322 327 332 335 337 342 346 351 355 356 358 1 2 8 22 21 26 28 29 27 30 143 202 198 204 206 208 210 211 215 216 217 218 220 218 220
269 269 273 276 278 284 290 297 304 312 315 320 325 330 335 336 340 346 349 355 355 357 360 2 6 13 25 30 31 25 24 17 355 193 204 206 209 210 212 214 215 216 217 219 219 220 220
266 268 270 270 274 280 287 294 302 309 313 318 323 329 333 335 339 343 348 354 354 356 360 6 3 8 18 26 31 31 23 9 359 285 217 209 214 213 215 217 218 219 221 222 220 220 220
262 263 265 266 273 277 284 291 298 305 310 316 321 327 332 334 338 341 346 352 353 354 360 5 11 8 13 16 21 24 24 19 352 327 270 233 218 217 216 217 218 218 220 222 224 223 222
261 259 260 261 269 275 279 288 295 303 308 313 318 324 330 333 336 339 347 349 352 351 358 5 10 12 8 12 13 18 16 17 9 329 297 264 237 221 214 214 215 217 217 219 221 223 221
257 256 256 259 266 273 278 285 293 300 305 310 315 320 328 331 335 338 345 346 350 351 355 2 7 14 7 9 9 10 11 11 8 355 299 276 255 235 226 217 215 216 217 219 220 221 223
258 253 254 258 267 270 275 282 291 298 302 307 312 318 326 329 333 336 343 342 349 350 355 0 6 13 9 5 6 5 4 3 2 1 335 278 259 244 231 224 220 216 218 218 220 222 224
259 252 253 256 262 267 270 278 286 294 299 304 308 315 324 327 331 334 340 341 346 349 355 1 5 9 9 3 1 1 359 357 357 351 345 296 262 249 239 227 222 220 217 217 219 220 224
261 251 249 253 259 263 268 276 283 291 295 299 304 312 320 324 329 331 339 338 344 347 353 359 5 5 10 4 359 357 355 354 350 344 337 305 251 247 238 235 230 224 223 219 219 219 223
260 252 249 249 255 262 266 272 280 285 289 293 301 308 316 322 326 329 337 337 342 346 352 356 3 3 3 7 358 354 353 350 346 341 333 305 252 240 241 234 231 226 225 222 221 221 223
258 250 251 249 252 257 265 268 277 284 284 291 299 307 312 320 323 329 335 336 338 345 350 354 0 2 1 7 357 354 351 347 347 340 328 302 256 236 235 235 231 231 231 228 227 223 223
258 250 251 245 249 251 261 266 273 280 283 292 297 305 310 316 321 329 332 334 334 345 350 353 360 360 2 6 359 355 350 348 346 341 329 304 264 237 229 234 235 233 234 236 228 226 227
256 249 247 245 245 250 257 267 272 277 283 288 292 300 306 313 318 326 327 330 334 344 348 351 357 356 360 359 3 354 349 348 348 344 332 316 282 246 221 226 232 234 235 233 230 229 225
251 257 246 246 245 248 255 261 268 272 278 286 292 298 305 310 317 325 324 327 335 342 345 349 355 356 358 359 358 356 350 347 345 344 334 322 295 262 225 223 224 226 228 230 234 236 234
248 257 246 244 250 250 254 260 265 268 276 283 293 296 302 308 316 320 321 327 334 340 345 348 353 356 0 359 359 358 348 348 344 344 336 326 308 272 234 222 221 227 230 231 229 233 233
244 253 244 244 248 251 253 256 261 268 275 283 290 295 299 308 314 318 320 326 331 337 343 348 351 355 359 360 356 358 351 354 350 348 338 322 312 273 238 224 228 233 228 226 233 235 231
242 248 243 245 246 248 247 253 258 266 274 283 288 293 300 307 315 314 319 325 332 337 341 345 351 353 356 357 356 357 352 352 353 351 342 326 308 275 242 227 231 238 234 226 230 228 231
237 243 243 242 243 242 245 251 257 266 273 280 287 293 298 309 313 313 320 326 332 337 339 344 348 351 356 354 357 357 353 355 355 351 347 327 301 259 242 236 235 240 237 235 229 228 230
236 241 240 240 241 242 247 252 257 265 273 278 285 290 299 308 307 314 321 327 332 336 338 343 347 350 352 352 354 355 356 351 353 350 345 329 309 270 244 240 242 249 246 238 233 232 233
234 240 244 243 244 244 247 251 258 264 271 277 285 290 299 301 307 316 321 330 332 337 339 343 345 348 351 351 354 351 352 351 351 351 343 328 310 282 243 235 244 244 238 239 241 242 242
Height
10805 10799 10795 10787 10780 10772 10766 10757 10748 10739 10729 10717 10704 10690 10674 10665 10650 10630 10612 10596 10574 10550 10526 10505 10485 10471 10456 10447 10441 10440 10442 10450 10463 10474 10489 10503 10518 10535 10548 10566 10577 10592 10610 10621 10629 10640 10652
10799 10794 10789 10783 10775 10767 10761 10754 10744 10735 10725 10715 10701 10688 10672 10661 10646 10630 10610 10594 10574 10549 10523 10501 10481 10466 10451 10441 10434 10432 10435 10441 10451 10463 10478 10496 10512 10526 10539 10553 10564 10581 10598 10607 10618 10631 10641
10792 10788 10784 10779 10771 10763 10756 10750 10741 10731 10720 10710 10700 10685 10670 10657 10642 10629 10610 10592 10573 10552 10524 10499 10480 10464 10449 10438 10430 10427 10429 10435 10443 10455 10470 10486 10504 10517 10532 10542 10557 10572 10584 10596 10607 10619 10629
10785 10782 10777 10773 10767 10759 10752 10745 10737 10728 10718 10706 10698 10683 10667 10655 10640 10628 10609 10589 10575 10554 10529 10501 10482 10464 10450 10438 10431 10427 10428 10433 10440 10451 10464 10479 10495 10509 10522 10537 10548 10557 10574 10587 10599 10608 10620
10777 10774 10771 10766 10762 10754 10748 10740 10733 10725 10714 10704 10695 10680 10666 10653 10640 10628 10609 10590 10576 10555 10535 10506 10484 10469 10452 10441 10434 10431 10430 10434 10441 10451 10462 10474 10491 10505 10515 10527 10538 10551 10570 10581 10592 10600 10612
10769 10767 10764 10760 10755 10748 10743 10736 10729 10721 10711 10701 10692 10679 10664 10653 10640 10626 10610 10592 10577 10562 10540 10514 10493 10479 10461 10445 10439 10435 10437 10439 10444 10452 10462 10474 10488 10498 10508 10523 10537 10550 10561 10572 10580 10588 10600
10759 10758 10756 10752 10747 10742 10738 10730 10725 10717 10707 10698 10689 10678 10663 10652 10639 10628 10612 10593 10576 10564 10544 10527 10503 10486 10469 10455 10447 10442 10442 10444 10447 10454 10462 10474 10484 10495 10503 10515 10531 10542 10552 10562 10570 10578 10591
10749 10749 10747 10744 10739 10736 10732 10725 10721 10713 10703 10694 10686 10677 10663 10650 10637 10627 10614 10597 10579 10567 10550 10534 10515 10493 10478 10465 10458 10453 10449 10448 10451 10458 10466 10476 10483 10492 10502 10513 10522 10531 10541 10550 10558 10566 10578
10737 10739 10737 10735 10730 10728 10726 10719 10715 10709 10700 10690 10683 10675 10662 10649 10638 10627 10615 10598 10581 10568 10558 10542 10525 10501 10485 10473 10465 10461 10458 10457 10456 10460 10467 10474 10482 10491 10501 10509 10518 10525 10532 10539 10548 10562 10572
10725 10726 10727 10725 10721 10720 10719 10714 10709 10704 10697 10687 10679 10672 10660 10648 10638 10627 10615 10601 10585 10569 10557 10545 10528 10512 10494 10480 10472 10468 10465 10464 10464 10467 10470 10472 10479 10486 10493 10500 10508 10516 10523 10532 10542 10554 10562
10711 10713 10715 10714 10712 10710 10711 10708 10703 10699 10692 10684 10676 10668 10659 10648 10638 10625 10614 10603 10588 10571 10557 10547 10534 10520 10504 10492 10483 10477 10473 10471 10470 10468 10470 10474 10477 10481 10486 10490 10499 10507 10514 10523 10533 10545 10556
10698 10700 10703 10703 10702 10701 10703 10700 10697 10693 10687 10680 10671 10665 10655 10646 10635 10624 10614 10604 10590 10576 10559 10545 10533 10518 10507 10497 10491 10487 10481 10476 10473 10472 10469 10470 10472 10476 10480 10487 10493 10500 10509 10516 10524 10534 10547
10684 10687 10690 10692 10692 10692 10694 10692 10689 10686 10681 10675 10668 10660 10652 10643 10632 10623 10612 10603 10589 10577 10565 10547 10536 10520 10509 10500 10493 10487 10484 10478 10474 10470 10468 10468 10467 10470 10475 10480 10486 10493 10499 10507 10516 10527 10539
10671 10674 10678 10680 10682 10682 10684 10683 10680 10679 10674 10669 10663 10655 10649 10640 10632 10621 10612 10601 10590 10577 10563 10549 10537 10527 10512 10503 10494 10487 10483 10478 10474 10466 10463 10462 10462 10463 10466 10469 10475 10480 10486 10495 10504 10514 10522
10657 10662 10666 10669 10672 10673 10674 10674 10672 10671 10667 10663 10657 10649 10645 10636 10628 10619 10611 10602 10591 10578 10564 10547 10536 10526 10513 10501 10492 10485 10479 10475 10470 10465 10459 10456 10455 10455 10458 10461 10465 10471 10480 10488 10495 10500 10505
10645 10649 10654 10658 10662 10663 10665 10664 10664 10663 10660 10655 10650 10644 10639 10632 10624 10616 10609 10600 10592 10579 10565 10547 10532 10520 10508 10498 10488 10479 10473 10468 10463 10458 10451 10449 10448 10448 10450 10453 10457 10463 10469 10478 10485 10490 10495
10633 10637 10642 10647 10651 10653 10656 10654 10655 10654 10653 10649 10643 10638 10634 10627 10620 10612 10605 10597 10589 10579 10565 10550 10535 10518 10506 10493 10482 10474 10468 10461 10454 10451 10446 10439 10439 10440 10441 10444 10445 10451 10458 10465 10471 10478 10483
10623 10626 10631 10637 10640 10643 10645 10645 10646 10645 10645 10642 10637 10632 10628 10622 10616 10607 10600 10593 10585 10574 10563 10550 10535 10521 10511 10496 10478 10469 10463 10454 10446 10439 10435 10431 10428 10429 10431 10433 10438 10443 10448 10455 10460 10466 10470
10612 10615 10620 10626 10629 10633 10636 10636 10637 10636 10636 10634 10630 10625 10621 10617 10611 10603 10597 10587 10579 10571 10559 10546 10534 10521 10508 10498 10482 10466 10453 10447 10436 10428 10422 10420 10418 10418 10421 10424 10426 10430 10434 10439 10444 10453 10460
10602 10605 10610 10615 10619 10624 10626 10627 10627 10627 10628 10626 10623 10620 10615 10610 10605 10598 10592 10584 10575 10567 10555 10542 10531 10519 10506 10494 10479 10465 10450 10436 10427 10417 10411 10408 10406 10406 10409 10412 10415 10418 10421 10428 10436 10444 10444
10591 10595 10599 10604 10608 10613 10616 10618 10618 10618 10618 10617 10615 10612 10607 10603 10598 10593 10586 10580 10570 10564 10552 10540 10529 10515 10505 10491 10477 10460 10444 10430 10417 10408 10400 10398 10395 10395 10398 10401 10404 10408 10412 10418 10426 10427 10438
10580 10584 10589 10593 10598 10602 10606 10608 10610 10608 10609 10609 10608 10604 10601 10596 10592 10587 10581 10573 10565 10557 10547 10535 10522 10507 10498 10482 10472 10458 10441 10423 10409 10400 10392 10389 10386 10385 10387 10392 10395 10399 10403 10408 10412 10414 10420
10569 10573 10579 10584 10588 10592 10596 10599 10601 10601 10599 10597 10599 10596 10592 10589 10585 10581 10573 10566 10560 10552 10541 10532 10520 10507 10492 10476 10465 10456 10436 10419 10404 10391 10386 10381 10379 10379 10380 10383 10388 10391 10390 10394 10399 10404 10407
10557 10562 10568 10574 10578 10582 10587 10590 10591 10591 10590 10588 10590 10588 10586 10582 10578 10573 10565 10559 10554 10547 10535 10521 10510 10498 10487 10469 10456 10448 10431 10413 10398 10385 10376 10373 10371 10371 10372 10376 10380 10374 10383 10389 10392 10393 10401
10548 10553 10558 10564 10568 10573 10577 10580 10582 10582 10581 10580 10580 10580 10579 10576 10572 10566 10558 10551 10545 10536 10527 10517 10502 10491 10477 10460 10445 10435 10420 10407 10394 10380 10370 10365 10362 10363 10364 10368 10368 10370 10374 10379 10382 10387 10391
10538 10543 10548 10554 10559 10564 10567 10570 10572 10573 10573 10571 10572 10571 10571 10569 10566 10558 10552 10545 10537 10525 10513 10507 10497 10483 10470 10454 10437 10419 10408 10397 10382 10374 10363 10358 10355 10355 10357 10361 10362 10363 10368 10372 10375 10379 10380
10527 10533 10539 10546 10551 10555 10558 10561 10564 10565 10565 10563 10561 10562 10562 10561 10557 10550 10545 10538 10529 10518 10508 10496 10486 10475 10462 10446 10431 10414 10397 10387 10374 10367 10359 10353 10350 10348 10348 10353 10355 10355 10362 10366 10368 10370 10371
10517 10525 10530 10536 10541 10546 10550 10553 10555 10556 10556 10554 10552 10552 10553 10552 10548 10543 10537 10529 10520 10511 10500 10491 10479 10467 10453 10436 10423 10407 10394 10380 10369 10363 10352 10347 10343 10339 10342 10345 10346 10352 10356 10358 10360 10359 10361
10508 10515 10521 10525 10531 10537 10540 10544 10546 10547 10547 10546 10543 10542 10542 10541 10540 10536 10529 10521 10510 10502 10490 10482 10471 10459 10445 10427 10413 10396 10386 10376 10363 10352 10346 10339 10337 10335 10333 10335 10337 10344 10348 10350 10351 10353 10354